This demonstration page uses our WeatherBlox Daily Observations layout. Learn more.

Left ArrowRight Arrow

39.01783, -85.05884

Hourly Observations for November 24, 2021

Temp ( °F °C ) Dew Point ( °F °C ) Humidity (%) Winds ( mph kmh ) Pressure ( in mb ) Visibility ( mi km ) Precip ( " mm )
12:52 am 00:52 Clear 31 -0.6 19 -7.2 61 61 S 9 15 30.25 1024 10 16 N/A
1:52 am 01:52 Clear 31 -0.6 19 -7.2 61 61 S 12 19 30.24 1024 10 16 N/A
2:52 am 02:52 Clear 29 -1.7 19 -7.2 66 66 S 9 15 30.24 1024 10 16 N/A
3:52 am 03:52 Clear 31 -0.6 19 -7.2 61 61 S 6 9 30.27 1025 10 16 N/A
4:52 am 04:52 Clear 29 -1.7 18 -7.8 63 63 S 8 13 30.26 1025 10 16 N/A
5:52 am 05:52 Clear 28 -2.2 18 -7.8 66 66 S 7 11 30.26 1025 10 16 N/A
6:52 am 06:52 Mostly Clear 29 -1.7 19 -7.2 66 66 SSE 7 11 30.27 1025 10 16 N/A
7:52 am 07:52 Mostly Cloudy 29 -1.7 20 -6.7 69 69 SSE 8 13 30.27 1025 10 16 N/A
8:52 am 08:52 Mostly Cloudy 35 1.7 22 -5.6 59 59 S 9 15 30.27 1025 10 16 N/A
9:52 am 09:52 Mostly Cloudy 40 4.4 23 -5 51 51 S 12 19 30.26 1025 10 16 N/A
10:52 am 10:52 Mostly Cloudy 46 7.8 24 -4.4 42 42 S 12 19 30.27 1025 10 16 N/A
11:52 am 11:52 Mostly Cloudy 48 8.9 24 -4.4 39 39 S 14 22 30.24 1024 10 16 N/A
12:52 pm 12:52 Cloudy 51 10.6 26 -3.3 38 38 SSW 12 19 30.22 1023 10 16 N/A
1:52 pm 13:52 Mostly Cloudy 53 11.7 27 -2.8 37 37 S 16 26 30.19 1022 10 16 N/A
2:52 pm 14:52 Cloudy 53 11.7 28 -2.2 38 38 S 17 28 30.16 1021 10 16 N/A
3:52 pm 15:52 Mostly Cloudy 53 11.7 27 -2.8 37 37 S 14 22 30.15 1021 10 16 N/A
4:52 pm 16:52 Mostly Cloudy 50 10 28 -2.2 43 43 S 12 19 30.16 1021 10 16 N/A
5:52 pm 17:52 Cloudy 49 9.4 28 -2.2 44 44 S 12 19 30.14 1021 10 16 N/A
6:52 pm 18:52 Cloudy 50 10 27 -2.8 41 41 S 10 17 30.15 1021 10 16 N/A
7:52 pm 19:52 Cloudy 51 10.6 25 -3.9 36 36 SSW 13 20 30.15 1021 10 16 N/A
8:52 pm 20:52 Cloudy 50 10 25 -3.9 38 38 S 14 22 30.14 1021 10 16 N/A
9:52 pm 21:52 Cloudy 49 9.4 25 -3.9 39 39 S 12 19 30.13 1020 10 16 N/A
10:52 pm 22:52 Cloudy 50 10 26 -3.3 39 39 SSW 10 17 30.12 1020 10 16 N/A
11:52 pm 23:52 Cloudy 50 10 26 -3.3 39 39 SSW 9 15 30.14 1021 10 16 N/A

Powered by AerisWeather